ECHOSTAR 14

Last updated on Sun Jun 21 2026 00:03:04 GMT+0000 (Coordinated Universal Time)

1 36499U 10010A 26171.41331970 -.00000004 00000+0 00000+0 0 9991 2 36499 0.0111 53.3776 0002468 46.7441 198.3944 1.00270174 46586
UTC large
Height (km)
Speed (km/s)
/
Latitude / Longitude
Inclination (degrees)
Orbital Period (minutes)
Azimuth
Elevation
Range (km)
Doppler Factor

Next 0 passes for location: London (51.5072 / 0.1276)

No passes found over London.
ECHOSTAR 14